Weather History for KEGE - July, 2013

Change the Weather History Date:

Sunday, July 21, 2013

  Actual Average Record
Temperature  
Mean Temperature 71 °F -  
Max Temperature 91 °F 85 °F 96 °F (2005)
Min Temperature 51 °F 48 °F 38 °F (1950)
Cooling Degree Days 6    
Growing Degree Days 21 (Base 50)    
Moisture  
Dew Point 35 °F    
Average Humidity 36    
Maximum Humidity 71    
Minimum Humidity 8    
Precipitation  
Precipitation 0.00 in - - ()
Sea Level Pressure  
Sea Level Pressure 30.09 in    
Wind  
Wind Speed 2 mph (NE)    
Max Wind Speed 14 mph    
Max Gust Speed 22 mph    
Visibility 10 miles    
Events      
Averages and records for this station are not official NWS values.
T = Trace of Precipitation, MM = Missing Value Source: NWS Daily Summary

Daily Weather History Graph

Daily Weather History Graph

Search for Another Location

Airport or City:

Trip Planner

Search our weather history database for the weather conditions in past years. The results will help you decide how hot, cold, wet, or windy it might be!

Date:

Astronomy

Jul. 21, 2013 Rise Set
Actual Time 5:57 AM MDT 8:30 PM MDT
Civil Twilight 5:26 AM MDT 9:01 PM MDT
Nautical Twilight 4:47 AM MDT 9:39 PM MDT
Astronomical Twilight 4:04 AM MDT 10:22 PM MDT
Moon 7:30 PM MDT (7/21) 4:46 AM MDT (7/21)
Length of Visible Light 15h 34m
Length of Day
14h 32m
Waxing Gibbous, 98% of the Moon is Illuminated
Jul 21
Waxing Gibbous
Jul 22
Full
Jul 29
Last Quarter
Aug 6
New
Aug 14
First Quarter

Hourly Weather History & Observations

Time (MDT) Temp. Dew Point Humidity Pressure Visibility Wind Dir Wind Speed Gust Speed Precip Events Conditions
12:15 AM 64.4 °F 41.0 °F 42% 30.09 in 10.0 mi Calm Calm - N/A   Clear
12:35 AM 60.8 °F 42.8 °F 52% 30.10 in 10.0 mi ESE 4.6 mph - N/A   Clear
1:35 AM 59.0 °F 41.0 °F 51% 30.10 in 10.0 mi Calm Calm - N/A   Clear
2:15 AM 57.2 °F 42.8 °F 59% 30.10 in 10.0 mi East 3.5 mph - N/A   Clear
2:55 AM 57.2 °F 41.0 °F 55% 30.11 in 10.0 mi East 3.5 mph - N/A   Clear
3:35 AM 55.4 °F 39.2 °F 54% 30.11 in 10.0 mi Calm Calm - N/A   Clear
3:55 AM 53.6 °F 42.8 °F 67% 30.11 in 10.0 mi Calm Calm - N/A   Clear
4:15 AM 53.6 °F 42.8 °F 67% 30.12 in 10.0 mi Calm Calm - N/A   Clear
4:35 AM 53.6 °F 39.2 °F 58% 30.12 in 10.0 mi Calm Calm - N/A   Clear
4:55 AM 53.6 °F 41.0 °F 62% 30.13 in 10.0 mi Calm Calm - N/A   Clear
5:15 AM 53.6 °F 37.4 °F 54% 30.13 in 10.0 mi Calm Calm - N/A   Clear
5:35 AM 51.8 °F 41.0 °F 67% 30.14 in 10.0 mi Calm Calm - N/A   Clear
5:55 AM 51.8 °F 41.0 °F 67% 30.14 in 10.0 mi Calm Calm - N/A   Clear
6:15 AM 51.8 °F 42.8 °F 71% 30.15 in 10.0 mi Calm Calm - N/A   Clear
6:35 AM 51.8 °F 42.8 °F 71% 30.15 in 10.0 mi East 4.6 mph - N/A   Clear
6:50 AM 51.8 °F 41.0 °F 67% 30.15 in 10.0 mi Calm Calm - N/A   Clear
7:50 AM 57.2 °F 42.8 °F 59% 30.16 in 10.0 mi Calm Calm - N/A   Partly Cloudy
8:50 AM 64.4 °F 39.2 °F 40% 30.17 in 10.0 mi Calm Calm - N/A   Partly Cloudy
9:50 AM 68.0 °F 35.6 °F 30% 30.15 in 10.0 mi Calm Calm - N/A   Partly Cloudy
10:50 AM 73.4 °F 33.8 °F 23% 30.14 in 10.0 mi Calm Calm - N/A   Partly Cloudy
11:50 AM 80.6 °F 33.8 °F 18% 30.12 in 10.0 mi Calm Calm - N/A   Partly Cloudy
12:50 PM 84.2 °F 28.4 °F 13% 30.09 in 10.0 mi Calm Calm - N/A   Partly Cloudy
1:50 PM 87.8 °F 30.2 °F 13% 30.07 in 10.0 mi North 11.5 mph - N/A   Scattered Clouds
2:50 PM 89.6 °F 28.4 °F 11% 30.05 in 10.0 mi NW 13.8 mph 20.7 mph N/A   Scattered Clouds
3:50 PM 91.4 °F 23.0 °F 8% 30.04 in 10.0 mi West 8.1 mph - N/A   Scattered Clouds
4:50 PM 91.4 °F 24.8 °F 9% 30.02 in 10.0 mi West 13.8 mph 21.9 mph N/A   Scattered Clouds
5:50 PM 91.4 °F 26.6 °F 10% 30.02 in 10.0 mi NNW 5.8 mph - N/A   Scattered Clouds
6:50 PM 89.6 °F 24.8 °F 10% 30.01 in 10.0 mi WNW 4.6 mph - N/A   Scattered Clouds
7:15 PM 89.6 °F 24.8 °F 10% 30.02 in 10.0 mi North 6.9 mph - N/A   Clear
7:35 PM 87.8 °F 26.6 °F 11% 30.02 in 10.0 mi Calm Calm - N/A   Clear
7:55 PM 86.0 °F 26.6 °F 12% 30.02 in 10.0 mi North 8.1 mph - N/A   Clear
8:15 PM 84.2 °F 24.8 °F 11% 30.03 in 10.0 mi North 3.5 mph - N/A   Clear
8:35 PM 82.4 °F 28.4 °F 14% 30.04 in 10.0 mi ESE 6.9 mph - N/A   Clear
8:55 PM 80.6 °F 28.4 °F 15% 30.05 in 10.0 mi Calm Calm - N/A   Clear
9:15 PM 77.0 °F 33.8 °F 21% 30.06 in 10.0 mi NNW 4.6 mph - N/A   Clear
9:35 PM 73.4 °F 33.8 °F 23% 30.06 in 10.0 mi ENE 6.9 mph - N/A   Clear
9:55 PM 71.6 °F 33.8 °F 25% 30.07 in 10.0 mi ENE 8.1 mph - N/A   Clear
10:15 PM 69.8 °F 33.8 °F 27% 30.08 in 10.0 mi East 6.9 mph - N/A   Clear
10:35 PM 69.8 °F 35.6 °F 28% 30.09 in 10.0 mi East 5.8 mph - N/A   Clear
10:55 PM 68.0 °F 35.6 °F 30% 30.10 in 10.0 mi East 3.5 mph - N/A   Clear
11:15 PM 68.0 °F 35.6 °F 30% 30.10 in 10.0 mi Calm Calm - N/A   Clear
11:35 PM 66.2 °F 35.6 °F 32% 30.10 in 10.0 mi SE 5.8 mph - N/A   Clear
11:55 PM 64.4 °F 35.6 °F 34% 30.11 in 10.0 mi East 3.5 mph - N/A   Clear